User: anonymous   Login
Location: Ladrillo (historical)
(32.8195°N, 117.2231°W)
Time: 08:14:17
(UTC+00:00)
Language:

CZ-4C R/B - Orbit

View from above orbital plane
View from above orbital plane
View from above satellite
View from above satellite

Ground track
Ground track

The orbit data is extracted from the following two-line orbital elements,

1 39211U 13037D   22228.53971391  .00002283  00000-0  13061-3 0  9993
2 39211  98.0700  41.6393 0119598  62.1272 299.2009 15.07887839498076
Epoch (UTC): 16 August 2022 12:57:11
Eccentricity: 0.0119598
inclination: 98.0700°
perigee height: 460 km
apogee height: 625 km
right ascension of ascending node: 41.6393°
argument of perigee: 62.1272°
revolutions per day: 15.07887839
mean anomaly at epoch: 299.2009°
orbit number at epoch: 49807

The dashed part of the orbit path shows where the satellite is in the earth's shadow,  

DLR